Weather in Dobrianka

Russia / Perm Krai     58°28′05″N   56°24′14″E
temp.,
°C
wind,
m/s
gust,
m/s
humid.,
%
clouds,
%
prec.,
mm/h
press.,
hPa
HPBL,
m
25 february, thu
thu2523:00−26nnw2210035 0.0 103142
02:00−28nnw1210092 0.0 103119
05:00−28nw1210078 0.0 103119
08:00−29wnw1110095 0.0 103119
11:00−23wsw119185 0.0 1030188
14:00−18ssw128279 0.0 1028369
17:00−17ssw248782 0.0 1027420
20:00−22sse129621 0.0 102720
26 february, fri
fri2623:00−24sse229915 0.0 102820
02:00−25se229854 0.0 102721
05:00−26se259568 0.0 1027128
08:00−26sse3895100 0.0 1026192
11:00−22sse378874 0.0 1026268
14:00−17sse378111 0.0 1024432
17:00−16sse48856 0.0 1022449
20:00−20sse310925 0.0 1020226
27 february, sat
sat2723:00−20se310892 0.0 1020214
02:00−20se410920 0.0 1017243
05:00−20se411900 0.0 1016269
08:00−18ese51388100 0.0 1008415
11:00−18ese51285100 0.0 1007352
14:00−16ese61189100 0.1 1005503
17:00−16ese61290100 0.4 1006616
20:00−17ese61391100 0.2 1006604
28 february, sun
sun2823:00−18e51392100 0.4 1006532
02:00−18e41193100 0.3 1006516
05:00−18e41093100 0.5 1007510
08:00−18e41094100 0.4 1007519
11:00−17e4992100 0.8 1008509
14:00−15e4790100 0.3 1009555
17:00−14ene3690100 0.5 1010596
20:00−16e3795100 0.3 1012488
1 march, mon
mon123:00−18ene279498 0.4 1015404
02:00−20ene259682 0.0 1016196
05:00−23ene239579 0.1 101883
08:00−24ne129323 0.0 101921
11:00−19nne238924 0.0 1020248
14:00−15nnw228491 0.0 1019404
17:00−15nw228782 0.0 1018321
20:00−20sw11974 0.0 101820